Crescent City, CA

12:31 AM PDT on July 27, 2017 (GMT -0700)
McNamara

Weather History for KCEC - September, 2013

Change the Weather History Date:

Wednesday, September 18, 2013

  Actual Average Record
Temperature  
Mean Temperature 55 °F 55 °F  
Max Temperature 64 °F 62 °F 82 °F (2000)
Min Temperature 46 °F 49 °F 41 °F (1949)
Degree Days  
Heating Degree Days 11 10  
Month to date heating degree days 161  
Since 1 July heating degree days 681  
Cooling Degree Days 0 0  
Month to date cooling degree days 0  
Year to date cooling degree days 0  
Growing Degree Days 4 (Base 50)    
Moisture  
Dew Point 50 °F    
Average Humidity 83    
Maximum Humidity 100    
Minimum Humidity 65    
Precipitation  
Precipitation 0.00 in 0.03 in 2.33 in (1966)
Month to date precipitation 0.35 0.42  
Year to date precipitation 20.52 38.28  
Since 1 July precipitation 0.59  
Snow  
Snow 0.00 in - - ()
Month to date snowfall 0.0  
Since 1 July snowfall 0.0  
Since 1 September snowfall 0.0  
Snow Depth -    
Sea Level Pressure  
Sea Level Pressure 30.04 in    
Wind  
Wind Speed 5 mph (NNW)    
Max Wind Speed 14 mph    
Max Gust Speed 17 mph    
Visibility 5 miles    
Events Fog    
T = Trace of Precipitation, MM = Missing Value Source: NWS Daily Summary

Daily Weather History Graph

Daily Weather History Graph

Search for Another Location

Airport or City:

Trip Planner

Search our weather history database for the weather conditions in past years. The results will help you decide how hot, cold, wet, or windy it might be!

Date:

Astronomy

Sep. 18, 2013 Rise Set
Actual Time 7:00 AM PDT 7:20 PM PDT
Civil Twilight 6:32 AM PDT 7:48 PM PDT
Nautical Twilight 5:59 AM PDT 8:21 PM PDT
Astronomical Twilight 5:26 AM PDT 8:54 PM PDT
Moon 6:46 PM PDT (9/18) 6:09 AM PDT (9/18)
Length of Visible Light 13h 15m
Length of Day
12h 19m
Waxing Gibbous, 99% of the Moon is Illuminated
Sep 18
Waxing Gibbous
Sep 19
Full
Sep 26
Last Quarter
Oct 4
New
Oct 11
First Quarter

Hourly Weather History & Observations

Time (PDT) Temp. Dew Point Humidity Pressure Visibility Wind Dir Wind Speed Gust Speed Precip Events Conditions
12:12 AM 51.8 °F 50.0 °F 94% 30.05 in 1.8 mi Calm Calm - N/A   Clear
12:26 AM 51.8 °F 50.0 °F 94% 30.05 in 3.0 mi Calm Calm - N/A   Clear
12:42 AM 51.8 °F 48.2 °F 88% 30.05 in 1.2 mi Calm Calm - N/A   Partly Cloudy
12:45 AM 51.8 °F 50.0 °F 94% 30.05 in 0.8 mi Calm Calm - N/A   Mist
12:56 AM 51.1 °F 50.0 °F 96% 30.06 in 0.8 mi Calm Calm - N/A   Mist
12:58 AM 51.8 °F 50.0 °F 94% 30.05 in 1.5 mi Calm Calm - N/A   Mostly Cloudy
1:00 AM 51.8 °F 50.0 °F 94% 30.05 in 4.0 mi Calm Calm - N/A   Mostly Cloudy
1:07 AM 50.0 °F 48.2 °F 94% 30.05 in 1.8 mi Calm Calm - N/A   Mostly Cloudy
1:11 AM 50.0 °F 48.2 °F 94% 30.05 in 0.8 mi Calm Calm - N/A   Mist
1:25 AM 51.8 °F 50.0 °F 94% 30.06 in 0.8 mi Calm Calm - N/A   Mist
1:28 AM 51.8 °F 50.0 °F 94% 30.06 in 1.5 mi Calm Calm - N/A   Mostly Cloudy
1:32 AM 50.0 °F 48.2 °F 94% 30.06 in 3.0 mi Calm Calm - N/A   Mostly Cloudy
1:36 AM 48.2 °F 48.2 °F 100% 30.06 in 2.0 mi Calm Calm - N/A   Scattered Clouds
1:43 AM 50.0 °F 48.2 °F 94% 30.06 in 1.5 mi Calm Calm - N/A   Scattered Clouds
1:46 AM 48.2 °F 48.2 °F 100% 30.07 in 3.0 mi Calm Calm - N/A   Partly Cloudy
1:56 AM 50.0 °F 48.9 °F 96% 30.07 in 2.0 mi Calm Calm - N/A   Clear
2:03 AM 50.0 °F 48.2 °F 94% 30.07 in 1.8 mi Calm Calm - N/A   Clear
2:06 AM 50.0 °F 48.2 °F 94% 30.07 in 3.0 mi Calm Calm - N/A   Clear
2:56 AM 50.0 °F 48.9 °F 96% 30.07 in 9.0 mi Calm Calm - N/A   Clear
3:50 AM 50.0 °F 48.2 °F 94% 30.07 in 1.8 mi NW 3.5 mph - N/A   Clear
3:53 AM 50.0 °F 48.2 °F 94% 30.07 in 0.8 mi NW 3.5 mph - N/A   Clear
3:56 AM 48.9 °F 48.9 °F 100% 30.07 in 0.5 mi Calm Calm - N/A Fog Fog
4:06 AM 48.2 °F 48.2 °F 100% 30.07 in 1.5 mi NNW 3.5 mph - N/A   Clear
4:15 AM 48.2 °F 48.2 °F 100% 30.07 in 3.0 mi North 3.5 mph - N/A   Clear
4:56 AM 48.9 °F 48.0 °F 97% 30.06 in 7.0 mi NE 3.5 mph - N/A   Clear
5:27 AM 48.2 °F 48.2 °F 100% 30.07 in 2.5 mi North 4.6 mph - N/A   Clear
5:36 AM 48.2 °F 48.2 °F 100% 30.07 in 7.0 mi North 3.5 mph - N/A   Clear
5:56 AM 48.9 °F 48.0 °F 97% 30.07 in 10.0 mi NNE 3.5 mph - N/A   Clear
6:21 AM 46.4 °F 46.4 °F 100% 30.06 in 1.8 mi Calm Calm - N/A   Clear
6:31 AM 50.0 °F 48.2 °F 94% 30.05 in 4.0 mi Calm Calm - N/A   Clear
6:56 AM 50.0 °F 48.9 °F 96% 30.05 in 10.0 mi NE 4.6 mph - N/A   Clear
7:23 AM 46.4 °F 46.4 °F 100% 30.04 in 1.5 mi Calm Calm - N/A   Clear
7:30 AM 46.4 °F 46.4 °F 100% 30.04 in 1.0 mi Calm Calm - N/A   Clear
7:34 AM 48.2 °F 48.2 °F 100% 30.04 in 2.5 mi Calm Calm - N/A   Clear
7:42 AM 48.2 °F 48.2 °F 100% 30.04 in 1.0 mi WNW 3.5 mph - N/A   Clear
7:56 AM 50.0 °F 48.9 °F 96% 30.04 in 0.5 mi NNW 3.5 mph - N/A Fog Fog
8:06 AM 51.8 °F 51.8 °F 100% 30.04 in 1.2 mi NNW 4.6 mph - N/A   Partly Cloudy
8:09 AM 51.8 °F 51.8 °F 100% 30.04 in 2.0 mi Calm Calm - N/A   Partly Cloudy
8:17 AM 53.6 °F 51.8 °F 94% 30.04 in 6.0 mi Calm Calm - N/A   Clear
8:56 AM 55.9 °F 52.0 °F 87% 30.04 in 6.0 mi NNW 4.6 mph - N/A   Clear
9:56 AM 61.0 °F 51.1 °F 70% 30.04 in 10.0 mi North 5.8 mph - N/A   Clear
10:56 AM 62.1 °F 50.0 °F 65% 30.04 in 10.0 mi NNW 10.4 mph - N/A   Clear
11:56 AM 61.0 °F 52.0 °F 72% 30.04 in 10.0 mi NNW 10.4 mph 17.3 mph N/A   Clear
12:56 PM 62.1 °F 53.1 °F 72% 30.02 in 10.0 mi NNW 11.5 mph - N/A   Clear
1:56 PM 62.1 °F 54.0 °F 75% 30.01 in 10.0 mi NNW 8.1 mph - N/A   Clear
2:56 PM 62.1 °F 53.1 °F 72% 30.01 in 10.0 mi NNW 10.4 mph - N/A   Clear
3:56 PM 62.1 °F 54.0 °F 75% 30.00 in 10.0 mi NW 10.4 mph - N/A   Clear
4:56 PM 61.0 °F 55.0 °F 81% 29.99 in 9.0 mi NNW 9.2 mph - N/A   Clear
5:56 PM 60.1 °F 53.1 °F 78% 29.99 in 10.0 mi North 9.2 mph - N/A   Clear
6:56 PM 57.0 °F 53.1 °F 87% 29.99 in 9.0 mi North 6.9 mph - N/A   Clear
7:24 PM 55.4 °F 53.6 °F 94% 29.99 in 9.0 mi North 4.6 mph - N/A   Scattered Clouds
7:56 PM 55.9 °F 53.1 °F 90% 29.99 in 10.0 mi North 5.8 mph - N/A   Clear
8:56 PM 53.1 °F 52.0 °F 96% 29.99 in 5.0 mi NW 4.6 mph - N/A   Clear
9:56 PM 53.1 °F 52.0 °F 96% 29.99 in 5.0 mi WNW 3.5 mph - N/A   Clear
10:23 PM 53.6 °F 51.8 °F 94% 29.98 in 8.0 mi Calm Calm - N/A   Scattered Clouds
10:34 PM 53.6 °F 51.8 °F 94% 29.98 in 9.0 mi SSE 3.5 mph - N/A   Mostly Cloudy
10:47 PM 51.8 °F 51.8 °F 100% 29.97 in 10.0 mi SE 5.8 mph - N/A   Scattered Clouds
10:56 PM 52.0 °F 50.0 °F 93% 29.97 in 10.0 mi SE 5.8 mph - N/A   Partly Cloudy
11:56 PM 55.0 °F 54.0 °F 96% 29.97 in 10.0 mi SSE 8.1 mph - N/A   Clear